Location: Unspecified
(0.0000°N, 0.0000°E)
Time: 18:00:57
(UTC+00:00)

Explorer 7 - All Passes

Search period start: 18 January 2020 00:00
Search period end: 28 January 2020 00:00
Orbit: 485 x 679 km, 50.3° (Epoch: 17 January)

Date Brightness Start Highest point End Pass type
(mag) Time Alt. Az. Time Alt. Az. Time Alt. Az.
18 Jan - 09:49:16 10° NNW 09:53:46 54° NE 09:58:30 10° SE daylight
18 Jan - 11:32:30 10° WSW 11:34:20 12° SW 11:36:13 10° SSW daylight
18 Jan - 21:52:52 10° SSW 21:56:53 76° SE 22:00:41 10° NE night (unlit)
19 Jan - 09:54:03 10° NW 09:58:39 74° SW 10:03:28 10° SSE daylight
19 Jan - 21:57:55 10° SW 22:01:45 44° NW 22:05:23 10° NNE night (unlit)
20 Jan - 08:20:17 10° NNE 08:23:10 17° NE 08:26:08 10° E daylight
20 Jan - 09:59:18 10° WNW 10:03:33 36° SW 10:07:59 10° SSE daylight
20 Jan - 20:23:15 10° S 20:26:17 20° SE 20:29:12 10° E visible
20 Jan - 22:03:39 10° WSW 22:06:36 20° NW 22:09:27 10° N night (unlit)
21 Jan - 08:24:00 10° N 08:28:02 32° NE 08:32:15 10° ESE daylight
21 Jan - 10:05:14 10° W 10:08:30 19° SW 10:11:51 10° S daylight
21 Jan - 20:27:17 10° SSW 20:31:14 42° SE 20:34:57 10° NE visible
22 Jan - 08:28:25 10° NNW 08:32:53 67° NE 08:37:36 10° SE daylight
22 Jan - 20:31:58 10° SW 20:36:07 81° NW 20:40:01 10° NE visible
23 Jan - 08:33:20 10° NW 08:37:45 58° SW 08:42:27 10° SSE daylight
23 Jan - 18:58:41 10° SSE 19:00:33 13° SE 19:02:21 10° ESE visible
23 Jan - 20:37:12 10° WSW 20:40:58 34° NW 20:44:33 10° NNE visible
24 Jan - 06:59:06 10° N 07:02:18 20° NE 07:05:38 10° E daylight
24 Jan - 08:38:47 10° WNW 08:42:40 28° SW 08:46:46 10° S daylight
24 Jan - 19:01:57 10° S 19:05:31 26° SE 19:08:55 10° ENE visible
24 Jan - 20:43:13 10° W 20:45:49 16° NW 20:48:21 10° NNW visible
25 Jan - 07:03:04 10° NNW 07:07:09 39° NE 07:11:29 10° ESE daylight
25 Jan - 08:45:07 10° W 08:47:39 15° SW 08:50:16 10° SSW daylight
25 Jan - 19:06:14 10° SSW 19:10:27 57° SE 19:14:24 10° NE visible
26 Jan - 07:07:39 10° NW 07:12:00 85° NE 07:16:39 10° SE daylight
26 Jan - 19:11:05 10° SW 19:15:20 62° NW 19:19:18 10° NNE visible
27 Jan - 05:35:07 10° NNE 05:36:35 11° NE 05:38:05 10° ENE visible
27 Jan - 07:12:43 10° NW 07:16:53 45° SW 07:21:20 10° SSE daylight
27 Jan - 17:36:57 10° S 17:39:46 17° SE 17:42:30 10° E daylight
27 Jan - 19:16:31 10° WSW 19:20:10 28° NW 19:23:39 10° N visible
